ASA1455 PANC-PAJN

Flight info

Callsign ASA1455
Flight time 1h 14m
Altitude 35000
Route NOEND CUSHI
Aircraft B738/M-SDE2E3FGHIRWXY/LB1

Departure

Time 2026-04-15 07:20
Airport Ted Stevens Anchorage International Airport (PANC)

Arrival

Time 2026-04-15 08:34
Airport Juneau International Airport (PAJN)
Time Latitude Longitude Altitude Speed Heading
2026-04-15 07:05 61.17468 -149.98425 110 ft 0 kts 82°
2026-04-15 07:11 61.17468 -149.98430 108 ft 3 kts 82°
2026-04-15 07:11 61.17464 -149.98484 107 ft 4 kts 81°
2026-04-15 07:11 61.17460 -149.98536 108 ft 4 kts 92°
2026-04-15 07:12 61.17468 -149.98581 107 ft 4 kts 144°
2026-04-15 07:12 61.17484 -149.98599 105 ft 0 kts 160°
2026-04-15 07:14 61.17476 -149.98593 104 ft 2 kts 160°
2026-04-15 07:14 61.17457 -149.98579 107 ft 3 kts 160°
2026-04-15 07:14 61.17433 -149.98569 107 ft 5 kts 178°
2026-04-15 07:15 61.17381 -149.98610 107 ft 11 kts 212°
2026-04-15 07:15 61.17311 -149.98702 110 ft 12 kts 212°
2026-04-15 07:15 61.17243 -149.98796 111 ft 12 kts 218°
2026-04-15 07:15 61.17189 -149.98919 111 ft 11 kts 228°
2026-04-15 07:16 61.17138 -149.99041 112 ft 11 kts 237°
2026-04-15 07:16 61.17124 -149.99192 117 ft 11 kts 270°
2026-04-15 07:16 61.17125 -149.99346 120 ft 11 kts 269°
2026-04-15 07:16 61.17124 -149.99496 123 ft 10 kts 270°
2026-04-15 07:17 61.17124 -149.99642 126 ft 10 kts 270°
2026-04-15 07:17 61.17124 -149.99789 128 ft 10 kts 270°
2026-04-15 07:17 61.17124 -149.99935 131 ft 10 kts 270°
2026-04-15 07:17 61.17124 -150.00077 134 ft 10 kts 270°
2026-04-15 07:18 61.17123 -150.00216 137 ft 9 kts 269°
2026-04-15 07:18 61.17123 -150.00352 136 ft 10 kts 270°
2026-04-15 07:18 61.17123 -150.00542 136 ft 16 kts 270°
2026-04-15 07:18 61.17116 -150.00757 136 ft 14 kts 240°
2026-04-15 07:19 61.17028 -150.00804 134 ft 14 kts 163°
2026-04-15 07:19 61.16977 -150.00653 136 ft 13 kts 98°
2026-04-15 07:19 61.16977 -150.00435 135 ft 32 kts 90°
2026-04-15 07:19 61.16978 -149.99289 125 ft 126 kts 90°
2026-04-15 07:20 61.16970 -149.96926 256 ft 193 kts 91°
2026-04-15 07:20 61.16943 -149.94062 1311 ft 197 kts 93°
2026-04-15 07:20 61.16497 -149.91426 2466 ft 203 kts 130°
2026-04-15 07:20 61.15240 -149.89923 2859 ft 225 kts 173°
2026-04-15 07:21 61.13710 -149.90628 3432 ft 232 kts 210°
2026-04-15 07:21 61.12350 -149.92473 4161 ft 236 kts 214°
2026-04-15 07:21 61.10818 -149.93650 4870 ft 241 kts 179°
2026-04-15 07:21 61.09262 -149.92600 5544 ft 249 kts 144°
2026-04-15 07:22 61.08121 -149.89807 6165 ft 262 kts 120°
2026-04-15 07:22 61.07405 -149.86269 7013 ft 271 kts 107°
2026-04-15 07:22 61.06918 -149.82466 7914 ft 277 kts 104°
2026-04-15 07:22 61.06473 -149.78527 8805 ft 285 kts 103°
2026-04-15 07:23 61.06021 -149.74469 9707 ft 294 kts 103°
2026-04-15 07:23 61.05548 -149.70301 10440 ft 306 kts 103°
2026-04-15 07:23 61.05032 -149.65855 10817 ft 329 kts 104°
2026-04-15 07:23 61.04477 -149.61180 11508 ft 339 kts 104°
2026-04-15 07:24 61.03901 -149.56406 12354 ft 346 kts 104°
2026-04-15 07:24 61.03311 -149.51559 13175 ft 352 kts 104°
2026-04-15 07:24 61.02697 -149.46598 13936 ft 360 kts 104°
2026-04-15 07:24 61.02077 -149.41622 14649 ft 366 kts 104°
2026-04-15 07:25 61.01427 -149.36486 15363 ft 374 kts 104°
2026-04-15 07:25 61.00768 -149.31242 16072 ft 381 kts 104°
2026-04-15 07:25 61.00093 -149.25913 16812 ft 387 kts 103°
2026-04-15 07:25 60.99407 -149.20492 17530 ft 394 kts 103°
2026-04-15 07:26 60.98703 -149.14971 18189 ft 402 kts 103°
2026-04-15 07:26 60.97983 -149.09355 18772 ft 409 kts 104°
2026-04-15 07:26 60.97250 -149.03655 19407 ft 414 kts 104°
2026-04-15 07:26 60.96505 -148.97879 20020 ft 421 kts 104°
2026-04-15 07:27 60.95748 -148.92017 20602 ft 427 kts 104°
2026-04-15 07:27 60.94987 -148.86139 21195 ft 433 kts 103°
2026-04-15 07:27 60.94198 -148.80093 21767 ft 440 kts 104°
2026-04-15 07:27 60.93393 -148.73973 22354 ft 446 kts 104°
2026-04-15 07:28 60.92575 -148.67782 22924 ft 452 kts 104°
2026-04-15 07:28 60.91739 -148.61503 23523 ft 458 kts 104°
2026-04-15 07:28 60.90890 -148.55148 24008 ft 463 kts 104°
2026-04-15 07:28 60.90038 -148.48748 24527 ft 464 kts 104°
2026-04-15 07:29 60.89177 -148.42322 25014 ft 468 kts 104°
2026-04-15 07:29 60.88312 -148.35838 25465 ft 473 kts 104°
2026-04-15 07:29 60.87429 -148.29278 25920 ft 477 kts 104°
2026-04-15 07:29 60.86548 -148.22772 26388 ft 481 kts 104°
2026-04-15 07:30 60.85647 -148.16149 26882 ft 484 kts 104°
2026-04-15 07:30 60.84733 -148.09470 27363 ft 487 kts 104°
2026-04-15 07:30 60.83813 -148.02763 27804 ft 491 kts 104°
2026-04-15 07:30 60.82890 -147.96020 28366 ft 492 kts 104°
2026-04-15 07:31 60.81952 -147.89251 28896 ft 493 kts 104°
2026-04-15 07:31 60.81003 -147.82460 29271 ft 498 kts 104°
2026-04-15 07:31 60.80043 -147.75595 29613 ft 503 kts 104°
2026-04-15 07:31 60.79074 -147.68683 30009 ft 506 kts 105°
2026-04-15 07:32 60.78099 -147.61753 30376 ft 508 kts 105°
2026-04-15 07:32 60.77131 -147.54898 30799 ft 507 kts 104°
2026-04-15 07:32 60.76149 -147.47982 31311 ft 505 kts 104°
2026-04-15 07:32 60.75166 -147.41085 31705 ft 506 kts 104°
2026-04-15 07:33 60.74174 -147.34157 32000 ft 509 kts 104°
2026-04-15 07:33 60.73176 -147.27209 32288 ft 511 kts 105°
2026-04-15 07:33 60.72168 -147.20223 32611 ft 512 kts 105°
2026-04-15 07:33 60.71158 -147.13258 33045 ft 511 kts 105°
2026-04-15 07:34 60.70146 -147.06312 33587 ft 507 kts 105°
2026-04-15 07:34 60.69143 -146.99453 34103 ft 503 kts 105°
2026-04-15 07:34 60.68141 -146.92632 34462 ft 501 kts 105°
2026-04-15 07:34 60.67133 -146.85791 34714 ft 503 kts 105°
2026-04-15 07:35 60.66121 -146.78947 34914 ft 505 kts 105°
2026-04-15 07:35 60.65099 -146.72064 34914 ft 509 kts 105°
2026-04-15 07:35 60.63038 -146.58283 34920 ft 505 kts 105°
2026-04-15 07:36 60.60989 -146.44693 34923 ft 501 kts 105°
2026-04-15 07:36 60.58943 -146.31225 34931 ft 501 kts 105°
2026-04-15 07:37 60.56861 -146.17629 34927 ft 502 kts 105°
2026-04-15 07:37 60.54768 -146.04066 34915 ft 502 kts 105°
2026-04-15 07:38 60.52659 -145.90504 34908 ft 503 kts 106°
2026-04-15 07:38 60.50548 -145.77039 34911 ft 504 kts 106°
2026-04-15 07:39 60.48408 -145.63495 34909 ft 504 kts 106°
2026-04-15 07:39 60.46253 -145.49956 34901 ft 504 kts 106°
2026-04-15 07:40 60.44085 -145.36446 34914 ft 504 kts 106°
2026-04-15 07:40 60.41904 -145.22952 34910 ft 504 kts 106°
2026-04-15 07:41 60.39711 -145.09490 34912 ft 503 kts 106°
2026-04-15 07:41 60.37510 -144.96081 34904 ft 502 kts 107°
2026-04-15 07:42 60.35301 -144.82722 34902 ft 501 kts 106°
2026-04-15 07:42 60.33096 -144.69480 34910 ft 500 kts 107°
2026-04-15 07:43 60.30867 -144.56193 34914 ft 500 kts 107°
2026-04-15 07:43 60.28636 -144.42995 34912 ft 499 kts 107°
2026-04-15 07:44 60.26381 -144.29752 34911 ft 499 kts 107°
2026-04-15 07:44 60.24498 -144.18761 34911 ft 499 kts 107°
2026-04-15 07:45 60.22217 -144.05538 34910 ft 500 kts 107°
2026-04-15 07:45 60.19920 -143.92314 34915 ft 500 kts 107°
2026-04-15 07:46 60.17610 -143.79113 34912 ft 501 kts 107°
2026-04-15 07:46 60.15285 -143.65914 34905 ft 501 kts 107°
2026-04-15 07:47 60.12961 -143.52821 34904 ft 501 kts 107°
2026-04-15 07:47 60.10610 -143.39665 34907 ft 501 kts 107°
2026-04-15 07:48 60.08241 -143.26501 34905 ft 502 kts 108°
2026-04-15 07:48 60.05862 -143.13373 34906 ft 502 kts 108°
2026-04-15 07:49 60.03467 -143.00246 34913 ft 502 kts 108°
2026-04-15 07:49 60.01061 -142.87145 34901 ft 502 kts 108°
2026-04-15 07:50 59.98642 -142.74070 34900 ft 501 kts 108°
2026-04-15 07:50 59.96229 -142.61110 34904 ft 501 kts 108°
2026-04-15 07:51 59.93786 -142.48082 34908 ft 500 kts 108°
2026-04-15 07:51 59.91334 -142.35088 34915 ft 500 kts 108°
2026-04-15 07:52 59.88872 -142.22132 34911 ft 500 kts 108°
2026-04-15 07:52 59.86395 -142.09180 34909 ft 500 kts 108°
2026-04-15 07:53 59.83907 -141.96258 34908 ft 499 kts 108°
2026-04-15 07:53 59.81429 -141.83473 34908 ft 499 kts 108°
2026-04-15 07:54 59.78923 -141.70621 34913 ft 499 kts 108°
2026-04-15 07:54 59.76401 -141.57778 34910 ft 499 kts 108°
2026-04-15 07:55 59.73863 -141.44933 34909 ft 499 kts 109°
2026-04-15 07:56 59.70038 -141.25728 34906 ft 499 kts 109°
2026-04-15 07:56 59.67471 -141.12945 34911 ft 500 kts 109°
2026-04-15 07:57 59.64907 -141.00255 34909 ft 500 kts 109°
2026-04-15 07:57 59.62311 -140.87492 34907 ft 500 kts 109°
2026-04-15 07:58 59.59701 -140.74739 34906 ft 500 kts 109°
2026-04-15 07:58 59.57083 -140.62024 34907 ft 500 kts 109°
2026-04-15 07:59 59.54442 -140.49275 34633 ft 502 kts 109°
2026-04-15 07:59 59.53141 -140.43012 34428 ft 499 kts 108°
2026-04-15 07:59 59.51881 -140.36637 34258 ft 499 kts 107°
2026-04-15 07:59 59.50665 -140.30231 34007 ft 498 kts 106°
2026-04-15 08:00 59.49466 -140.23823 33728 ft 498 kts 106°
2026-04-15 08:00 59.48269 -140.17420 33433 ft 498 kts 106°
2026-04-15 08:00 59.47066 -140.11044 33139 ft 497 kts 107°
2026-04-15 08:00 59.45854 -140.04680 32845 ft 497 kts 107°
2026-04-15 08:01 59.44630 -139.98314 32555 ft 496 kts 107°
2026-04-15 08:01 59.43403 -139.91968 32282 ft 495 kts 107°
2026-04-15 08:01 59.42175 -139.85653 31998 ft 494 kts 107°
2026-04-15 08:01 59.40945 -139.79359 31719 ft 493 kts 107°
2026-04-15 08:02 59.39714 -139.73075 31442 ft 492 kts 107°
2026-04-15 08:02 59.38483 -139.66812 31178 ft 492 kts 107°
2026-04-15 08:02 59.37251 -139.60558 30904 ft 491 kts 107°
2026-04-15 08:02 59.36018 -139.54321 30634 ft 490 kts 107°
2026-04-15 08:03 59.34796 -139.48154 30367 ft 490 kts 107°
2026-04-15 08:03 59.33561 -139.41937 30103 ft 490 kts 107°
2026-04-15 08:03 59.32319 -139.35705 29805 ft 490 kts 107°
2026-04-15 08:03 59.31075 -139.29487 29485 ft 490 kts 107°
2026-04-15 08:04 59.29823 -139.23238 28596 ft 497 kts 108°
2026-04-15 08:04 59.28568 -139.16995 27715 ft 488 kts 108°
2026-04-15 08:04 59.27332 -139.10884 26893 ft 480 kts 109°
2026-04-15 08:04 59.26103 -139.04824 26093 ft 478 kts 109°
2026-04-15 08:05 59.24878 -138.98799 25314 ft 476 kts 109°
2026-04-15 08:05 59.23659 -138.92811 24545 ft 471 kts 110°
2026-04-15 08:05 59.22453 -138.86912 23796 ft 462 kts 110°
2026-04-15 08:05 59.21274 -138.81158 22970 ft 450 kts 111°
2026-04-15 08:06 59.20120 -138.75544 22102 ft 441 kts 111°
2026-04-15 08:06 59.18996 -138.70100 21278 ft 436 kts 110°
2026-04-15 08:06 59.17870 -138.64652 20470 ft 430 kts 110°
2026-04-15 08:06 59.16755 -138.59273 19661 ft 425 kts 110°
2026-04-15 08:07 59.15653 -138.53965 18900 ft 419 kts 110°
2026-04-15 08:07 59.14563 -138.48729 18128 ft 414 kts 110°
2026-04-15 08:07 59.13486 -138.43566 17263 ft 409 kts 111°
2026-04-15 08:07 59.12422 -138.38478 16421 ft 403 kts 111°
2026-04-15 08:08 59.11371 -138.33468 15600 ft 397 kts 111°
2026-04-15 08:08 59.10332 -138.28526 14796 ft 392 kts 112°
2026-04-15 08:08 59.09306 -138.23657 14027 ft 386 kts 112°
2026-04-15 08:08 59.08295 -138.18868 13313 ft 377 kts 112°
2026-04-15 08:09 59.07314 -138.14234 12895 ft 359 kts 112°
2026-04-15 08:09 59.06380 -138.09837 12662 ft 347 kts 112°
2026-04-15 08:09 59.05487 -138.05645 12582 ft 333 kts 112°
2026-04-15 08:09 59.04603 -138.01495 12637 ft 332 kts 112°
2026-04-15 08:10 59.03720 -137.97362 12627 ft 331 kts 112°
2026-04-15 08:10 59.02838 -137.93239 12635 ft 330 kts 112°
2026-04-15 08:10 59.01954 -137.89119 12642 ft 331 kts 112°
2026-04-15 08:10 59.01067 -137.84993 12650 ft 332 kts 112°
2026-04-15 08:11 59.00175 -137.80863 12696 ft 330 kts 112°
2026-04-15 08:11 58.99284 -137.76802 12996 ft 326 kts 112°
2026-04-15 08:11 58.98379 -137.72718 13538 ft 332 kts 113°
2026-04-15 08:11 58.97458 -137.68592 14219 ft 335 kts 112°
2026-04-15 08:12 58.96554 -137.64396 14913 ft 342 kts 111°
2026-04-15 08:12 58.95652 -137.60067 15356 ft 350 kts 110°
2026-04-15 08:12 58.94757 -137.55735 15543 ft 352 kts 111°
2026-04-15 08:12 58.93836 -137.51351 15749 ft 349 kts 111°
2026-04-15 08:13 58.92901 -137.47009 15734 ft 351 kts 111°
2026-04-15 08:13 58.91953 -137.42655 15279 ft 348 kts 112°
2026-04-15 08:13 58.91008 -137.38347 14726 ft 347 kts 112°
2026-04-15 08:13 58.90045 -137.34072 14136 ft 344 kts 113°
2026-04-15 08:14 58.89080 -137.29825 13589 ft 347 kts 113°
2026-04-15 08:14 58.88135 -137.25626 13214 ft 341 kts 113°
2026-04-15 08:14 58.87204 -137.21465 12885 ft 334 kts 113°
2026-04-15 08:14 58.86293 -137.17382 12553 ft 328 kts 113°
2026-04-15 08:15 58.85394 -137.13353 12218 ft 326 kts 112°
2026-04-15 08:15 58.84499 -137.09341 11901 ft 324 kts 113°
2026-04-15 08:15 58.83609 -137.05359 11587 ft 323 kts 113°
2026-04-15 08:15 58.82719 -137.01379 11274 ft 322 kts 113°
2026-04-15 08:16 58.81829 -136.97414 10955 ft 321 kts 113°
2026-04-15 08:16 58.80943 -136.93467 10640 ft 320 kts 112°
2026-04-15 08:16 58.80056 -136.89524 10340 ft 319 kts 112°
2026-04-15 08:16 58.79172 -136.85600 10030 ft 319 kts 112°
2026-04-15 08:17 58.78290 -136.81693 9792 ft 316 kts 112°
2026-04-15 08:17 58.77424 -136.77864 9536 ft 314 kts 112°
2026-04-15 08:17 58.76552 -136.74020 9258 ft 312 kts 112°
2026-04-15 08:17 58.75683 -136.70189 8990 ft 311 kts 112°
2026-04-15 08:18 58.74817 -136.66384 8740 ft 309 kts 112°
2026-04-15 08:18 58.73954 -136.62592 8481 ft 309 kts 112°
2026-04-15 08:18 58.73090 -136.58805 8240 ft 309 kts 113°
2026-04-15 08:18 58.72224 -136.55018 7976 ft 309 kts 113°
2026-04-15 08:19 58.71356 -136.51230 7725 ft 308 kts 113°
2026-04-15 08:19 58.70493 -136.47469 7544 ft 306 kts 113°
2026-04-15 08:19 58.69658 -136.43723 7402 ft 303 kts 112°
2026-04-15 08:19 58.68826 -136.40070 7252 ft 301 kts 113°
2026-04-15 08:20 58.67975 -136.36418 7102 ft 298 kts 114°
2026-04-15 08:20 58.67120 -136.32757 6976 ft 301 kts 113°
2026-04-15 08:20 58.66255 -136.29045 6842 ft 305 kts 113°
2026-04-15 08:20 58.65387 -136.25323 6694 ft 304 kts 113°
2026-04-15 08:21 58.64530 -136.21633 6550 ft 300 kts 114°
2026-04-15 08:21 58.63690 -136.18030 6404 ft 297 kts 114°
2026-04-15 08:21 58.62847 -136.14419 6264 ft 296 kts 114°
2026-04-15 08:21 58.62004 -136.10810 6120 ft 296 kts 113°
2026-04-15 08:22 58.61162 -136.07211 5962 ft 296 kts 113°
2026-04-15 08:22 58.60317 -136.03605 5822 ft 295 kts 114°
2026-04-15 08:22 58.59473 -136.00005 5674 ft 295 kts 113°
2026-04-15 08:22 58.58628 -135.96411 5529 ft 295 kts 113°
2026-04-15 08:23 58.57783 -135.92818 5397 ft 296 kts 113°
2026-04-15 08:23 58.56936 -135.89227 5255 ft 296 kts 113°
2026-04-15 08:23 58.56099 -135.85684 5115 ft 296 kts 113°
2026-04-15 08:23 58.55250 -135.82093 4975 ft 296 kts 113°
2026-04-15 08:24 58.54399 -135.78500 4830 ft 296 kts 113°
2026-04-15 08:24 58.53547 -135.74911 4689 ft 296 kts 113°
2026-04-15 08:24 58.52696 -135.71331 4544 ft 296 kts 113°
2026-04-15 08:24 58.51848 -135.67768 4522 ft 291 kts 113°
2026-04-15 08:25 58.51008 -135.64246 4510 ft 291 kts 113°
2026-04-15 08:25 58.50162 -135.60702 4495 ft 294 kts 114°
2026-04-15 08:25 58.49311 -135.57131 4521 ft 294 kts 113°
2026-04-15 08:25 58.48457 -135.53604 4519 ft 289 kts 114°
2026-04-15 08:26 58.47619 -135.50188 4519 ft 281 kts 114°
2026-04-15 08:26 58.46820 -135.46790 4585 ft 285 kts 112°
2026-04-15 08:26 58.46082 -135.43287 4963 ft 281 kts 109°
2026-04-15 08:26 58.45391 -135.39813 5069 ft 280 kts 112°
2026-04-15 08:27 58.44582 -135.36387 5186 ft 285 kts 114°
2026-04-15 08:27 58.43740 -135.32922 5302 ft 288 kts 114°
2026-04-15 08:27 58.42864 -135.29482 5382 ft 288 kts 115°
2026-04-15 08:27 58.41969 -135.26056 5374 ft 289 kts 115°
2026-04-15 08:28 58.41087 -135.22604 5294 ft 291 kts 115°
2026-04-15 08:28 58.40231 -135.19093 5090 ft 293 kts 113°
2026-04-15 08:28 58.39411 -135.15518 4815 ft 293 kts 113°
2026-04-15 08:28 58.38543 -135.12075 4414 ft 290 kts 116°
2026-04-15 08:29 58.37677 -135.08621 3956 ft 288 kts 113°
2026-04-15 08:29 58.36879 -135.05199 3839 ft 276 kts 112°
2026-04-15 08:29 58.36147 -135.01845 3571 ft 271 kts 110°
2026-04-15 08:29 58.35614 -134.98423 3235 ft 269 kts 99°
2026-04-15 08:30 58.35443 -134.94989 3094 ft 252 kts 86°
2026-04-15 08:30 58.35594 -134.91771 2982 ft 236 kts 82°
2026-04-15 08:30 58.35760 -134.88752 2748 ft 220 kts 82°
2026-04-15 08:30 58.35874 -134.85976 2490 ft 203 kts 84°
2026-04-15 08:31 58.35958 -134.83352 2078 ft 192 kts 85°
2026-04-15 08:31 58.36017 -134.80915 1912 ft 179 kts 87°
2026-04-15 08:31 58.36019 -134.78600 1701 ft 174 kts 89°
2026-04-15 08:31 58.35968 -134.76407 1528 ft 156 kts 92°
2026-04-15 08:32 58.35912 -134.75027 1413 ft 155 kts 92°
2026-04-15 08:32 58.35857 -134.72992 1216 ft 155 kts 90°
2026-04-15 08:32 58.35819 -134.70957 1045 ft 151 kts 91°
2026-04-15 08:32 58.35783 -134.68976 824 ft 150 kts 89°
2026-04-15 08:33 58.35899 -134.66377 655 ft 144 kts 82°
2026-04-15 08:33 58.35985 -134.64508 496 ft 141 kts 83°
2026-04-15 08:33 58.36000 -134.62640 345 ft 142 kts 91°
2026-04-15 08:33 58.35935 -134.61394 228 ft 143 kts 98°
2026-04-15 08:34 58.35756 -134.59535 53 ft 142 kts 103°
2026-04-15 08:34 58.35527 -134.57857 33 ft 109 kts 105°
2026-04-15 08:34 58.35389 -134.56866 33 ft 48 kts 104°
2026-04-15 08:34 58.35397 -134.56695 32 ft 9 kts 33°
2026-04-15 08:35 58.35460 -134.56684 33 ft 9 kts 336°
2026-04-15 08:35 58.35489 -134.56787 33 ft 9 kts 284°
2026-04-15 08:35 58.35505 -134.56906 33 ft 10 kts 284°
2026-04-15 08:35 58.35523 -134.57041 33 ft 11 kts 284°
2026-04-15 08:36 58.35543 -134.57192 33 ft 12 kts 285°
2026-04-15 08:36 58.35568 -134.57361 33 ft 14 kts 285°
2026-04-15 08:36 58.35594 -134.57536 34 ft 13 kts 284°
2026-04-15 08:36 58.35618 -134.57704 32 ft 13 kts 285°
2026-04-15 08:37 58.35640 -134.57866 31 ft 13 kts 285°
2026-04-15 08:37 58.35662 -134.58025 33 ft 12 kts 285°
2026-04-15 08:37 58.35684 -134.58180 33 ft 12 kts 285°
2026-04-15 08:37 58.35713 -134.58289 33 ft 9 kts 332°
2026-04-15 08:38 58.35772 -134.58302 32 ft 6 kts
2026-04-15 08:38 58.35795 -134.58301 33 ft 2 kts
2026-04-15 08:38 58.35813 -134.58301 33 ft 3 kts 359°
2026-04-15 08:38 58.35824 -134.58302 33 ft 0 kts 359°